Terminal Aerodrome Forecast
Issued by NWS Boston, MA

Home | Current Version | Previous Version | Text Only | Print | Product List | Glossary On
Versions: 1 2 3 4 5 6 7 8 9 10 11 12 13 14 15 16 17 18 19 20 21 22 23 24 25 26 27 28 29 30 31 32 33 34 35 36 37 38 39 40 41 42 43 44 45 46 47
000
FTUS41 KBOX 211736
TAFBDL
TAF
KBDL 211736Z 2118/2224 33005KT P6SM SCT040 BKN080
     FM212100 03006KT P6SM BKN035
     FM220300 03004KT P6SM OVC015
     FM220600 01006KT 6SM BR OVC008
     FM221600 36010KT P6SM OVC008
     FM222100 36010G19KT 6SM -RA OVC015
     FM222200 36010G19KT 6SM RA OVC015=

USA.gov is the U.S. government's official web portal to all federal, state and local government web resources and services.